Regional Weather Roundup
Issued by NWS

Home | Current Version | Previous Version | Graphics & Text | Print | Product List | Glossary On
Versions: 1 2 3 4 5 6 7 8 9 10 11 12 13 14 15 16 17 18 19 20 21 22 23 24 25 26 27 28 29 30 31 32 33 34 35 36 37 38 39 40 41 42 43 44 45 46 47 48 49 50
000
ASUS43 KTOP 262359
RWRKS

WEATHER ROUNDUP FOR KANSAS
NATIONAL WEATHER SERVICE GOODLAND KS
700 PM CDT THU MAR 26 2015

NOTE:  "FAIR" INDICATES FEW OR NO CLOUDS BELOW 12,000 FEET WITH NO
SIGNIFICANT WEATHER AND/OR OBSTRUCTIONS TO VISIBILITY.

KSZ001>006-013>018-027>032-041>047-270100-
NORTHWEST KANSAS

CITY           SKY/WX    TMP DP  RH WIND       PRES   REMARKS
GOODLAND       CLOUDY    55  28  35 N15G24    30.11R
6HR MIN TEMP:  55; 6HR MAX TEMP:  61;

HAYS           MOCLDY    61  27  27 NW21G31   30.01R
HILL CITY      CLOUDY    60  26  27 N21G28    30.03R
6HR MIN TEMP:  53; 6HR MAX TEMP:  65; 6HR PCP: TRACE;

RUSSELL        CLOUDY    62  27  26 NW25      29.97R
6HR MIN TEMP:  50; 6HR MAX TEMP:  63;

$$

KSZ061>065-074>080-084>089-270100-
SOUTHWEST KANSAS

CITY           SKY/WX    TMP DP  RH WIND       PRES   REMARKS
DODGE CITY     CLOUDY    61  25  25 NW15      30.04R
6HR MIN TEMP:  55; 6HR MAX TEMP:  66;

ELKHART          N/A     62  25  24 NW10        N/A
GARDEN CITY    CLOUDY    61  26  26 N20       30.06R
6HR MIN TEMP:  54; 6HR MAX TEMP:  64;

GREAT BEND     CLOUDY    63  28  27 NW17G23   29.99R
LIBERAL        MOSUNNY   64  25  22 NW17      30.10R
$$

KSZ066>073-081>083-090>101-270100-
SOUTHEAST KANSAS

CITY           SKY/WX    TMP DP  RH WIND       PRES   REMARKS
CHANUTE        CLEAR     51  26  37 CALM      30.08F
6HR MIN TEMP:  49; 6HR MAX TEMP:  56;

COFFEYVILLE    CLEAR     55  25  31 N3        30.09F
6HR MIN TEMP:  50; 6HR MAX TEMP:  57;

HUTCHINSON     CLOUDY    58  33  39 S12       30.00F
6HR MIN TEMP:  49; 6HR MAX TEMP:  61;

MEDICINE LODGE   N/A     61  31  32 SW10      30.02F
NEWTON         PTCLDY    54  30  40 SW13      30.05F
PARSONS        CLEAR     55  26  32 N3        30.10S
6HR MIN TEMP:  50; 6HR MAX TEMP:  58;

WICHITA INTL   MOCLDY    56  31  38 SW8       30.04F
6HR MIN TEMP:  49; 6HR MAX TEMP:  58;

WICHITA JABRA  PTCLDY    55  32  41 SW8       30.04F
6HR MIN TEMP:  48; 6HR MAX TEMP:  56;

WINFIELD       CLEAR     55  32  41 SW5       30.08F
6HR MIN TEMP:  51; 6HR MAX TEMP:  59;

$$

KSZ007>012-019>026-033>040-048>060-102>105-270100-
NORTHEAST KANSAS

CITY           SKY/WX    TMP DP  RH WIND       PRES   REMARKS
EMPORIA        MOCLDY    53  27  36 SW3       30.04F
6HR MIN TEMP:  48; 6HR MAX TEMP:  55;

LAWRENCE       CLOUDY    50  27  40 CALM      30.05F
6HR MIN TEMP:  47; 6HR MAX TEMP:  53;

MANHATTAN      CLOUDY    53  29  39 SE5       30.04S
6HR MIN TEMP:  48; 6HR MAX TEMP:  56;

OLATHE IND     CLOUDY    48  29  47 NE3       30.06F
6HR MIN TEMP:  46; 6HR MAX TEMP:  52;

OLATHE EXE     CLOUDY    49  26  41 NE3       30.06F
6HR MIN TEMP:  45; 6HR MAX TEMP:  52;

SALINA         CLOUDY    58  30  34 SE9       29.98F
6HR MIN TEMP:  49; 6HR MAX TEMP:  61;

TOPEKA BILLARD CLOUDY    51  26  37 CALM      30.07S
6HR MIN TEMP:  48; 6HR MAX TEMP:  53;

TOPEKA FORBES  CLOUDY    52  28  39 SE5       30.05F
6HR MIN TEMP:  47; 6HR MAX TEMP:  54;

$$



USA.gov is the U.S. government's official web portal to all federal, state and local government web resources and services.